TimeEST,TemperatureF,Dew PointF,Humidity,Sea Level PressureIn,VisibilityMPH,Wind Direction,Wind SpeedMPH,Gust SpeedMPH,PrecipitationIn,Events,Conditions,WindDirDegrees,DateUTC
12:12 AM,30.9,25.0,79,30.37,10.0,ENE,8.1,-,N/A,,Overcast,70,2013-12-08 05:12:00
12:53 AM,30.9,25.0,79,30.39,10.0,ENE,9.2,-,N/A,,Overcast,60,2013-12-08 05:53:00
1:53 AM,30.9,25.0,79,30.36,9.0,ENE,6.9,-,0.00,,Overcast,60,2013-12-08 06:53:00
2:53 AM,30.9,26.1,82,30.37,9.0,Variable,3.5,-,0.01,,Overcast,0,2013-12-08 07:53:00
3:16 AM,30.9,27.0,85,30.31,4.0,East,4.6,-,0.04,Rain,Light Freezing Rain,80,2013-12-08 08:16:00
3:38 AM,30.9,27.0,85,30.29,5.0,NE,6.9,-,0.06,Rain,Light Freezing Rain,40,2013-12-08 08:38:00
3:43 AM,30.9,28.0,89,30.29,4.0,ENE,6.9,-,0.07,Rain,Light Freezing Rain,60,2013-12-08 08:43:00
3:50 AM,30.2,26.6,86,30.30,6.0,NE,5.8,-,0.07,Rain,Light Freezing Rain,50,2013-12-08 08:50:00
3:53 AM,30.9,27.0,85,30.32,7.0,NE,6.9,-,0.07,Rain,Light Freezing Rain,50,2013-12-08 08:53:00
4:08 AM,32.0,28.0,85,30.28,7.0,ENE,4.6,-,0.01,Rain,Light Freezing Rain,60,2013-12-08 09:08:00
4:29 AM,32.0,28.0,85,30.27,10.0,ENE,3.5,-,0.01,,Overcast,60,2013-12-08 09:29:00
4:36 AM,32.0,28.0,85,30.29,10.0,NNE,4.6,-,0.01,,Overcast,20,2013-12-08 09:36:00
4:43 AM,32.0,28.0,85,30.30,10.0,North,6.9,-,0.01,,Overcast,10,2013-12-08 09:43:00
4:51 AM,32.0,28.4,87,30.27,6.0,NE,6.9,-,0.01,Rain,Light Freezing Rain,50,2013-12-08 09:51:00
4:52 AM,32.0,28.0,85,30.30,6.0,NE,6.9,-,0.01,Rain,Light Freezing Rain,50,2013-12-08 09:52:00
5:50 AM,32.0,28.4,87,30.26,10.0,NE,4.6,-,0.01,,Overcast,50,2013-12-08 10:50:00
5:53 AM,32.0,28.9,88,30.29,9.0,NE,5.8,-,0.01,,Overcast,50,2013-12-08 10:53:00
6:15 AM,32.0,28.9,88,30.24,5.0,NE,6.9,-,0.00,Rain,Light Freezing Rain,40,2013-12-08 11:15:00
6:46 AM,32.0,28.9,88,30.24,7.0,NE,5.8,-,0.00,,Overcast,50,2013-12-08 11:46:00
6:53 AM,32.0,28.9,88,30.27,7.0,ENE,6.9,-,0.00,,Overcast,70,2013-12-08 11:53:00
7:14 AM,32.0,28.9,88,30.24,5.0,NNE,6.9,-,0.01,Rain,Light Freezing Rain,30,2013-12-08 12:14:00
7:53 AM,33.1,30.0,89,30.26,8.0,NE,6.9,-,0.01,Rain,Light Freezing Rain,50,2013-12-08 12:53:00
8:28 AM,33.1,30.0,89,30.22,2.0,East,6.9,-,0.02,Rain,Light Freezing Rain,80,2013-12-08 13:28:00
8:33 AM,33.1,30.0,89,30.22,3.0,ENE,5.8,-,0.02,Rain,Light Rain,70,2013-12-08 13:33:00
8:53 AM,33.1,30.0,89,30.24,2.0,East,4.6,-,0.05,Rain,Rain,90,2013-12-08 13:53:00
9:17 AM,33.1,30.9,92,30.20,4.0,ESE,6.9,-,0.05,Rain,Light Rain,120,2013-12-08 14:17:00
9:29 AM,33.1,30.0,89,30.19,5.0,ESE,6.9,-,0.05,Rain,Light Rain,120,2013-12-08 14:29:00
9:53 AM,34.0,30.9,89,30.20,7.0,East,5.8,-,0.07,Rain,Light Rain,100,2013-12-08 14:53:00
10:40 AM,34.0,32.0,92,30.25,3.0,NW,5.8,-,0.02,Rain,Rain,310,2013-12-08 15:40:00
10:53 AM,35.1,32.0,89,30.25,3.0,North,4.6,-,0.04,Rain,Light Rain,350,2013-12-08 15:53:00
11:03 AM,35.1,32.0,89,30.22,2.5,North,5.8,-,0.01,Rain,Rain,350,2013-12-08 16:03:00
11:16 AM,35.1,32.0,89,30.21,4.0,NNE,5.8,-,0.02,Rain,Light Rain,30,2013-12-08 16:16:00
11:33 AM,35.1,32.0,89,30.19,5.0,ESE,4.6,-,0.03,Rain,Light Rain,110,2013-12-08 16:33:00
11:53 AM,35.1,32.0,89,30.23,4.0,Calm,Calm,-,0.06,Rain,Light Rain,0,2013-12-08 16:53:00
12:04 PM,35.1,33.1,92,30.19,3.0,Calm,Calm,-,0.02,Rain,Light Rain,0,2013-12-08 17:04:00
12:25 PM,35.1,33.1,92,30.18,2.5,Calm,Calm,-,0.04,Rain,Light Rain,0,2013-12-08 17:25:00
12:33 PM,36.0,33.1,89,30.17,4.0,SE,3.5,-,0.05,Rain,Light Rain,130,2013-12-08 17:33:00
12:53 PM,35.1,33.1,92,30.18,4.0,ESE,4.6,-,0.06,Rain,Light Rain,120,2013-12-08 17:53:00
1:12 PM,36.0,33.1,89,30.14,3.0,SE,5.8,-,0.00,,Overcast,130,2013-12-08 18:12:00
1:20 PM,36.0,34.0,93,30.14,2.5,SE,4.6,-,0.00,,Overcast,140,2013-12-08 18:20:00
1:53 PM,36.0,34.0,93,30.14,2.0,SE,4.6,-,0.00,,Overcast,140,2013-12-08 18:53:00
2:33 PM,37.0,35.1,93,30.10,3.0,SE,3.5,-,0.01,Rain,Light Rain,130,2013-12-08 19:33:00
2:53 PM,37.0,35.1,93,30.11,5.0,ESE,4.6,-,0.01,Rain,Light Rain,120,2013-12-08 19:53:00
3:03 PM,37.0,35.1,93,30.08,7.0,East,3.5,-,0.01,Rain,Light Rain,100,2013-12-08 20:03:00
3:33 PM,37.9,35.1,89,30.08,10.0,Calm,Calm,-,0.01,,Overcast,0,2013-12-08 20:33:00
3:53 PM,37.9,35.1,89,30.10,10.0,Calm,Calm,-,0.01,,Overcast,0,2013-12-08 20:53:00
4:53 PM,39.0,36.0,89,30.09,10.0,Calm,Calm,-,N/A,,Overcast,0,2013-12-08 21:53:00
5:39 PM,39.0,37.0,93,30.09,5.0,Calm,Calm,-,0.01,Rain,Light Rain,0,2013-12-08 22:39:00
5:53 PM,39.0,37.0,93,30.10,9.0,Calm,Calm,-,0.01,Rain,Light Rain,0,2013-12-08 22:53:00
6:00 PM,39.0,37.0,93,30.07,10.0,Calm,Calm,-,0.00,Rain,Light Rain,0,2013-12-08 23:00:00
6:53 PM,39.9,37.9,93,30.07,10.0,SSE,3.5,-,0.01,Rain,Light Rain,160,2013-12-08 23:53:00
7:45 PM,41.0,39.0,93,30.03,8.0,Calm,Calm,-,0.05,Rain,Light Rain,0,2013-12-09 00:45:00
7:53 PM,41.0,39.0,93,30.05,6.0,Calm,Calm,-,0.07,Rain,Light Rain,0,2013-12-09 00:53:00
8:49 PM,44.6,42.8,93,30.05,9.0,South,3.5,-,0.08,Rain,Light Rain,190,2013-12-09 01:49:00
8:53 PM,45.0,43.0,93,30.06,10.0,SSE,3.5,-,0.08,Rain,Light Rain,160,2013-12-09 01:53:00
9:38 PM,48.0,45.0,89,30.02,10.0,South,5.8,-,0.02,,Overcast,170,2013-12-09 02:38:00
9:53 PM,48.9,46.0,90,30.03,10.0,South,4.6,-,0.02,,Overcast,180,2013-12-09 02:53:00
10:53 PM,50.0,46.9,89,30.02,10.0,South,5.8,-,0.00,Rain,Light Rain,170,2013-12-09 03:53:00
11:14 PM,50.0,46.9,89,30.01,6.0,Variable,4.6,-,0.02,Rain,Rain,0,2013-12-09 04:14:00
11:24 PM,50.0,46.9,89,30.02,9.0,South,4.6,-,0.02,Rain,Light Rain,180,2013-12-09 04:24:00
11:45 PM,50.0,46.9,89,30.03,6.0,West,4.6,-,0.04,Rain,Light Rain,280,2013-12-09 04:45:00
11:53 PM,50.0,46.9,89,30.04,6.0,SW,3.5,-,0.05,Rain,Light Rain,220,2013-12-09 04:53:00